Weather History for Monett, MO

Change the Weather History Date:

Thursday, January 23, 2014

  Actual Average (KJLN) Record (KJLN)
Temperature  
Mean Temperature 14 °F 35 °F  
Max Temperature 24 °F 45 °F 72 °F (1967)
Min Temperature 3 °F 25 °F -7 °F (1963)
Degree Days  
Heating Degree Days 52 30  
Month to date heating degree days 690  
Since 1 July heating degree days 2307  
Cooling Degree Days 0 0  
Month to date cooling degree days 0  
Year to date cooling degree days 0  
Moisture  
Dew Point -3 °F    
Average Humidity 50    
Maximum Humidity 78    
Minimum Humidity 35    
Precipitation  
Precipitation 0.00 in 0.07 in 1.34 in (1949)
Month to date precipitation 1.52  
Year to date precipitation 1.52  
Sea Level Pressure  
Sea Level Pressure 30.62 in    
Wind  
Wind Speed 13 mph (North)    
Max Wind Speed 20 mph    
Max Gust Speed 29 mph    
Visibility 10 miles    
Events      
T = Trace of Precipitation, MM = Missing Value Source: NWS Daily Summary

Daily Weather History Graph

Daily Weather History Graph

Search for Another Location

Airport:

Trip Planner

Search our weather history database for the weather conditions in past years. The results will help you decide how hot, cold, wet, or windy it might be!

Date:

Astronomy

Jan. 23, 2014 Rise Set
Actual Time 7:24 AM CST 5:31 PM CST
Civil Twilight 6:56 AM CST 5:59 PM CST
Nautical Twilight 6:25 AM CST 6:30 PM CST
Astronomical Twilight 5:54 AM CST 7:01 PM CST
Moon No Moon Rise 11:11 AM CST (1/23)
Length of Visible Light 11h 02m
Length of Day
10h 07m
Waning Gibbous, 55% of the Moon is Illuminated
Jan 23
Waning Gibbous
Jan 23
Last Quarter
Jan 30
New
Feb 6
First Quarter
Feb 14
Full

Hourly Weather History & Observations

Time (CST) Temp. Windchill Dew Point Humidity Pressure Visibility Wind Dir Wind Speed Gust Speed Precip Events Conditions
12:15 AM 24.8 °F 11.1 °F 14.0 °F 64% 30.32 in 10.0 mi North 18.4 mph 24.2 mph N/A   Clear
12:35 AM 23.0 °F 9.6 °F 14.0 °F 68% 30.33 in 10.0 mi North 16.1 mph 24.2 mph N/A   Scattered Clouds
12:55 AM 23.0 °F 9.2 °F 14.0 °F 68% 30.33 in 10.0 mi North 17.3 mph 27.6 mph N/A   Mostly Cloudy
1:15 AM 23.0 °F 8.3 °F 12.2 °F 63% 30.35 in 10.0 mi North 19.6 mph 25.3 mph N/A   Overcast
1:35 AM 21.2 °F 6.4 °F 6.8 °F 54% 30.37 in 10.0 mi North 18.4 mph 28.8 mph N/A   Overcast
1:55 AM 19.4 °F 5.0 °F 5.0 °F 54% 30.39 in 10.0 mi North 16.1 mph - N/A   Scattered Clouds
2:15 AM 19.4 °F 5.0 °F 3.2 °F 49% 30.39 in 10.0 mi North 16.1 mph 21.9 mph N/A   Scattered Clouds
2:35 AM 17.6 °F 2.2 °F -5.8 °F 35% 30.41 in 10.0 mi North 17.3 mph 26.5 mph N/A   Mostly Cloudy
2:55 AM 15.8 °F -0.6 °F -7.6 °F 35% 30.43 in 10.0 mi North 18.4 mph 26.5 mph N/A   Overcast
3:15 AM 14.0 °F -3.0 °F -5.8 °F 41% 30.44 in 10.0 mi North 18.4 mph 25.3 mph N/A   Scattered Clouds
3:35 AM 14.0 °F 0.5 °F -5.8 °F 41% 30.44 in 10.0 mi North 11.5 mph 24.2 mph N/A   Scattered Clouds
3:55 AM 14.0 °F -1.4 °F -5.8 °F 41% 30.45 in 10.0 mi North 15.0 mph 24.2 mph N/A   Scattered Clouds
4:15 AM 12.2 °F -2.5 °F -4.0 °F 48% 30.47 in 10.0 mi North 12.7 mph 18.4 mph N/A   Clear
4:35 AM 12.2 °F -2.5 °F -0.4 °F 57% 30.48 in 10.0 mi North 12.7 mph - N/A   Scattered Clouds
4:55 AM 12.2 °F -1.8 °F -0.4 °F 57% 30.49 in 10.0 mi North 11.5 mph - N/A   Clear
5:15 AM 10.4 °F -6.0 °F -2.2 °F 57% 30.51 in 10.0 mi North 15.0 mph - N/A   Clear
5:35 AM 10.4 °F -4.8 °F -5.8 °F 48% 30.52 in 10.0 mi North 12.7 mph 18.4 mph N/A   Clear
5:55 AM 10.4 °F -4.1 °F -4.0 °F 52% 30.54 in 10.0 mi North 11.5 mph 18.4 mph N/A   Clear
6:15 AM 8.6 °F -7.0 °F -5.8 °F 52% 30.55 in 10.0 mi North 12.7 mph 19.6 mph N/A   Clear
6:35 AM 8.6 °F -6.3 °F -5.8 °F 52% 30.57 in 10.0 mi North 11.5 mph - N/A   Scattered Clouds
6:55 AM 8.6 °F -6.3 °F -5.8 °F 52% 30.57 in 10.0 mi North 11.5 mph - N/A   Clear
7:15 AM 8.6 °F -5.5 °F -5.8 °F 52% 30.59 in 10.0 mi North 10.4 mph - N/A   Mostly Cloudy
7:35 AM 8.6 °F -7.0 °F -5.8 °F 52% 30.60 in 10.0 mi North 12.7 mph 17.3 mph N/A   Mostly Cloudy
7:55 AM 8.6 °F -8.3 °F -5.8 °F 52% 30.61 in 10.0 mi North 15.0 mph - N/A   Clear
8:15 AM 8.6 °F -5.5 °F -5.8 °F 52% 30.62 in 10.0 mi North 10.4 mph - N/A   Scattered Clouds
8:35 AM 8.6 °F -8.9 °F -4.0 °F 57% 30.64 in 10.0 mi North 16.1 mph - N/A   Scattered Clouds
8:55 AM 8.6 °F -5.5 °F -5.8 °F 52% 30.66 in 10.0 mi North 10.4 mph - N/A   Clear
9:15 AM 8.6 °F -6.3 °F -5.8 °F 52% 30.67 in 10.0 mi North 11.5 mph - N/A   Mostly Cloudy
9:35 AM 8.6 °F -7.7 °F -5.8 °F 52% 30.68 in 10.0 mi North 13.8 mph - N/A   Overcast
9:55 AM 10.4 °F -4.8 °F -5.8 °F 48% 30.69 in 10.0 mi North 12.7 mph - N/A   Overcast
10:15 AM 10.4 °F -6.0 °F -5.8 °F 48% 30.70 in 10.0 mi North 15.0 mph - N/A   Overcast
10:35 AM 10.4 °F -4.1 °F -5.8 °F 48% 30.71 in 10.0 mi North 11.5 mph 19.6 mph N/A   Mostly Cloudy
10:55 AM 10.4 °F -4.8 °F -5.8 °F 48% 30.71 in 10.0 mi North 12.7 mph - N/A   Scattered Clouds
11:15 AM 12.2 °F -0.2 °F -4.0 °F 48% 30.71 in 10.0 mi North 9.2 mph 17.3 mph N/A   Clear
11:35 AM 12.2 °F -2.5 °F -5.8 °F 45% 30.71 in 10.0 mi North 12.7 mph - N/A   Clear
11:55 AM 12.2 °F -1.8 °F -4.0 °F 48% 30.71 in 10.0 mi North 11.5 mph 16.1 mph N/A   Clear
12:15 PM 14.0 °F 2.0 °F -5.8 °F 41% 30.70 in 10.0 mi North 9.2 mph 17.3 mph N/A   Scattered Clouds
12:35 PM 14.0 °F -0.8 °F -5.8 °F 41% 30.70 in 10.0 mi North 13.8 mph 19.6 mph N/A   Scattered Clouds
12:55 PM 14.0 °F -0.2 °F -5.8 °F 41% 30.70 in 10.0 mi North 12.7 mph 18.4 mph N/A   Clear
1:15 PM 14.0 °F -0.2 °F -5.8 °F 41% 30.69 in 10.0 mi North 12.7 mph - N/A   Clear
1:35 PM 14.0 °F -0.2 °F -7.6 °F 38% 30.69 in 10.0 mi North 12.7 mph - N/A   Clear
1:55 PM 14.0 °F 2.0 °F -5.8 °F 41% 30.69 in 10.0 mi North 9.2 mph - N/A   Clear
2:15 PM 14.0 °F 1.2 °F -5.8 °F 41% 30.69 in 10.0 mi North 10.4 mph - N/A   Clear
2:35 PM 14.0 °F 0.5 °F -5.8 °F 41% 30.69 in 10.0 mi NNW 11.5 mph 17.3 mph N/A   Clear
2:55 PM 15.8 °F 3.4 °F -5.8 °F 38% 30.69 in 10.0 mi North 10.4 mph - N/A   Clear
3:15 PM 17.6 °F 7.3 °F -5.8 °F 35% 30.68 in 10.0 mi NNW 8.1 mph - N/A   Clear
3:35 PM 17.6 °F 5.7 °F -5.8 °F 35% 30.69 in 10.0 mi North 10.4 mph - N/A   Clear
3:55 PM 15.8 °F 4.2 °F -5.8 °F 38% 30.69 in 10.0 mi NNW 9.2 mph - N/A   Clear
4:15 PM 15.8 °F 2.7 °F -4.0 °F 41% 30.69 in 10.0 mi NNW 11.5 mph - N/A   Clear
4:35 PM 15.8 °F 5.1 °F -5.8 °F 38% 30.69 in 10.0 mi North 8.1 mph - N/A   Clear
4:55 PM 14.0 °F 1.2 °F -4.0 °F 45% 30.69 in 10.0 mi NNW 10.4 mph - N/A   Clear
5:15 PM 14.0 °F 3.9 °F -4.0 °F 45% 30.70 in 10.0 mi NNW 6.9 mph - N/A   Clear
5:35 PM 12.2 °F 2.9 °F -4.0 °F 48% 30.70 in 10.0 mi NNW 5.8 mph - N/A   Clear
5:55 PM 12.2 °F 2.9 °F -4.0 °F 48% 30.71 in 10.0 mi NNW 5.8 mph - N/A   Clear
6:15 PM 12.2 °F 6.1 °F -4.0 °F 48% 30.71 in 10.0 mi NW 3.5 mph - N/A   Clear
6:35 PM 10.4 °F 2.2 °F -4.0 °F 52% 30.71 in 10.0 mi NNW 4.6 mph - N/A   Clear
6:55 PM 10.4 °F 4.0 °F -4.0 °F 52% 30.71 in 10.0 mi North 3.5 mph - N/A   Clear
7:15 PM 10.4 °F 4.0 °F -4.0 °F 52% 30.71 in 10.0 mi NNW 3.5 mph - N/A   Clear
7:35 PM 10.4 °F 4.0 °F -4.0 °F 52% 30.71 in 10.0 mi NNW 3.5 mph - N/A   Clear
7:55 PM 10.4 °F 4.0 °F -4.0 °F 52% 30.71 in 10.0 mi NNW 3.5 mph - N/A   Clear
8:35 PM 8.6 °F - -4.0 °F 57% 30.71 in 10.0 mi Calm Calm - N/A   Clear
8:55 PM 8.6 °F - -4.0 °F 57% 30.71 in 10.0 mi Calm Calm - N/A   Clear
9:15 PM 8.6 °F - -4.0 °F 57% 30.71 in 10.0 mi Calm Calm - N/A   Clear
9:55 PM 8.6 °F - -4.0 °F 57% 30.71 in 10.0 mi Calm Calm - N/A   Clear
10:15 PM 6.8 °F - -4.0 °F 61% 30.71 in 10.0 mi Calm Calm - N/A   Clear
10:35 PM 8.6 °F - -4.0 °F 57% 30.71 in 10.0 mi Calm Calm - N/A   Clear
10:55 PM 6.8 °F - -4.0 °F 61% 30.71 in 10.0 mi Calm Calm - N/A   Clear
11:15 PM 5.0 °F - -4.0 °F 66% 30.70 in 10.0 mi Calm Calm - N/A   Clear
11:35 PM 3.2 °F -4.2 °F -2.2 °F 78% 30.70 in 10.0 mi South 3.5 mph - N/A   Clear
11:55 PM 3.2 °F -4.2 °F -2.2 °F 78% 30.69 in 10.0 mi SSW 3.5 mph - N/A   Clear